Miscellaneous Local Product
Issued by NWS North Platte, NE

Home | Current Version | Previous Version | Text Only | Print | Product List | Glossary On
Versions: 1 2 3 4 5 6 7 8 9 10 11 12 13 14 15 16 17 18 19 20 21 22 23 24 25 26 27 28 29 30 31 32 33 34 35 36 37 38 39 40 41 42 43 44 45 46 47 48 49 50
479
AXUS43 KLBF 240510
MISLBF


WESTERN AND NORTH CENTRAL NEBRASKA HOURLY WEATHER ROUNDUP
NATIONAL WEATHER SERVICE NORTH PLATTE NE
1200 AM CDT SAT SEP 24 2016

NOTE: "FAIR" INDICATES FEW OR NO CLOUDS BELOW 12,000 FEET WITH NO
SIGNIFICANT WEATHER AND/OR OBSTRUCTIONS TO VISIBILITY.

NOTE: STATIONS NOT REPORTING VARIABLES SUCH AS SKY/WEATHER OR
PRESSURE ARE PROVIDED BY RAWS AND APRS NETWORKS AND ARE NOT UNDER
NATIONAL WEATHER SERVICE QUALITY CONTROL.

...OBSERVATIONS IN AND NEAR THE EASTERN PANHANDLE OF NEBRASKA...

CITY           SKY/WX    TMP DP  RH WIND       PRES   REMARKS
PINE RIDGE     MOCLDY    54  50  86 W12       29.84S
CHADRON        LGT RAIN  53  48  83 W15       29.88S
ALLIANCE       RAIN      51  48  89 SW14G29   29.94R
SIDNEY         LGT RAIN  52  48  86 N20G28    29.92R
CRESCENT LAKE    N/A     56  46  70 NW13G23     N/A
$$

...OBSERVATIONS IN NORTHERN NEBRASKA AND FAR SOUTHERN SOUTH DAKOTA...

CITY           SKY/WX    TMP DP  RH WIND       PRES   REMARKS
WINNER         FAIR      77  59  53 SE21G28   29.76R
VALENTINE      CLEAR     73  56  54 S21       29.76S
THEDFORD       CLEAR     74  58  56 S20       29.81R
AINSWORTH      CLEAR     73  60  64 S17G25    29.80S
O`NEILL        CLEAR     74  60  61 SE21      29.85S
ORD            LGT RAIN  73  60  63 SE16      29.85R
BROKEN BOW     CLEAR     71  61  70 S15       29.85S
VALENTINE NWR    N/A     71  55  56 S10G18      N/A
BUTTE            N/A     72  61  68 SE17G24     N/A
HALSEY           N/A     74  57  55 S13G25      N/A
EWING            N/A     73  63  72 S9          N/A
$$

...OBSERVATIONS IN SOUTHWEST NEBRASKA AND FAR NORTHEAST COLORADO...

CITY           SKY/WX    TMP DP  RH WIND       PRES   REMARKS
WRAY           FAIR      75  55  50 S25G35    29.79S
HOLYOKE        FAIR      75  55  50 S17G23    29.81R
IMPERIAL       CLOUDY    75  56  51 S26G38    29.78S
OGALLALA       PTCLDY    76  55  49 SE18G24   29.77F
NORTH PLATTE   CLEAR     76  56  49 S18G32    29.80S
MCCOOK         CLEAR     74  58  57 S21G30    29.80F
LEXINGTON      CLEAR     72  59  62 SE14      29.85S
STAPLETON        N/A     71  58  63 CALM        N/A
GOTHENBURG       N/A     75  55  49 SE12        N/A
CALLAWAY         N/A     69  60  74 S17         N/A
$$

...OBSERVATIONS IN CENTRAL LINCOLN COUNTY AREA...

CITY           SKY/WX    TMP DP  RH WIND       PRES   REMARKS
N.P. AIRPORT   CLEAR     76  56  49 S18G32    29.80S
N.P. DOWNTOWN    N/A     74  58  57 S8G25       N/A
N.P. SOUTHEAST   N/A     74  57  55 S14G22      N/A
N.P. HILLCREST   N/A     74  58  57 SE16G26     N/A
$$

...SOME OBSERVATIONS FROM AROUND THE REGION...

CITY           SKY/WX    TMP DP  RH WIND       PRES   REMARKS
DENVER         CLOUDY    59  30  33 E15       29.85S
LARAMIE        LGT SNOW  34  32  92 W16       30.04F FOG     WCI  24
CHEYENNE       LGT RAIN  42  35  76 W25G48    29.94R
SCOTTSBLUFF    TSTM      50  49  96 NW8       29.96R FOG
RAPID CITY     LGT RAIN  62  60  93 NW10      29.81S
BISMARCK       CLOUDY    62  62 100 E8        29.78F
PIERRE         CLOUDY    76  57  51 SE18      29.72F
SIOUX FALLS    CLEAR     73  63  70 SE13      29.93R
OMAHA          CLEAR     75  63  66 SE12      29.96S
GRAND ISLAND   CLEAR     73  63  70 SE15G25   29.89S
KANSAS CITY    CLEAR     71  62  73 SE8       30.01R
WICHITA        CLEAR     74  67  78 S8        29.94R
OKLAHOMA CITY  CLEAR     77  68  73 SE10      29.95S
DALLAS         CLEAR     82  71  69 S10       29.96R
AMARILLO       CLEAR     72  62  71 SE15      29.95S
DODGE CITY     CLEAR     75  66  73 S21G31    29.90S
HAYS           CLEAR     75  59  57 S15       29.88R
GOODLAND       MOCLDY    73  60  63 S29G35    29.83R
$$




USA.gov is the U.S. government's official web portal to all federal, state and local government web resources and services.